Cortez, CO

2:26 PM MST on November 20, 2017 (GMT -0700)
Cortez Municipal

Weather History for KCEZ - June, 2013

Change the Weather History Date:

Tuesday, June 25, 2013

  Actual Average Record
Temperature  
Mean Temperature 70 °F 67 °F  
Max Temperature 87 °F 88 °F 97 °F (2012)
Min Temperature 53 °F 47 °F 39 °F (1998)
Degree Days  
Heating Degree Days 0 1  
Month to date heating degree days 12 73  
Since 1 June heating degree days 12 73  
Since 1 July heating degree days 6406 6440  
Cooling Degree Days 5 3  
Month to date cooling degree days 77 41  
Year to date cooling degree days 77 46  
Since 1 June cooling degree days 77 41  
Growing Degree Days 21 (Base 50)    
Moisture  
Dew Point 25 °F    
Average Humidity 22    
Maximum Humidity 33    
Minimum Humidity 11    
Precipitation  
Precipitation 0.00 in 0.02 in 0.06 in (2005)
Month to date precipitation T 0.42  
Year to date precipitation 3.33 5.56  
Sea Level Pressure  
Sea Level Pressure 29.89 in    
Wind  
Wind Speed 7 mph (NE)    
Max Wind Speed 21 mph    
Max Gust Speed 31 mph    
Visibility 10 miles    
Events      
T = Trace of Precipitation, MM = Missing Value Source: NWS Daily Summary

Daily Weather History Graph

Daily Weather History Graph

Search for Another Location

Airport or City:

Trip Planner

Search our weather history database for the weather conditions in past years. The results will help you decide how hot, cold, wet, or windy it might be!

Date:

Astronomy

Jun. 25, 2013 Rise Set
Actual Time 5:55 AM MDT 8:38 PM MDT
Civil Twilight 5:24 AM MDT 9:10 PM MDT
Nautical Twilight 4:45 AM MDT 9:48 PM MDT
Astronomical Twilight 4:01 AM MDT 10:32 PM MDT
Moon 10:31 PM MDT (6/25) 8:35 AM MDT (6/25)
Length of Visible Light 15h 45m
Length of Day
14h 43m
Waning Gibbous, 92% of the Moon is Illuminated
Jun 25
Waning Gibbous
Jun 29
Last Quarter
Jul 8
New
Jul 15
First Quarter
Jul 22
Full

Hourly Weather History & Observations

Time (MDT) Temp. Dew Point Humidity Pressure Visibility Wind Dir Wind Speed Gust Speed Precip Events Conditions
12:53 AM 64.9 °F 15.1 °F 15% 29.80 in 10.0 mi South 8.1 mph - N/A   Clear
1:53 AM 62.1 °F 18.0 °F 18% 29.82 in 10.0 mi Calm Calm - N/A   Clear
2:53 AM 63.0 °F 17.1 °F 17% 29.83 in 10.0 mi South 9.2 mph - N/A   Clear
3:53 AM 61.0 °F 18.0 °F 19% 29.84 in 10.0 mi Calm Calm - N/A   Clear
4:53 AM 55.0 °F 19.9 °F 25% 29.86 in 10.0 mi NE 6.9 mph - N/A   Clear
5:53 AM 55.9 °F 24.1 °F 29% 29.88 in 10.0 mi ENE 4.6 mph - N/A   Clear
6:53 AM 55.0 °F 24.1 °F 30% 29.92 in 10.0 mi ENE 10.4 mph - N/A   Clear
7:53 AM 63.0 °F 28.0 °F 27% 29.92 in 10.0 mi ENE 9.2 mph - N/A   Clear
8:53 AM 71.1 °F 24.1 °F 17% 29.92 in 10.0 mi East 3.5 mph - N/A   Clear
9:53 AM 73.9 °F 21.0 °F 14% 29.94 in 10.0 mi Variable 3.5 mph - N/A   Clear
10:53 AM 78.1 °F 21.9 °F 12% 29.94 in 10.0 mi Calm Calm - N/A   Clear
11:53 AM 80.1 °F 24.1 °F 13% 29.94 in 10.0 mi SSW 5.8 mph - N/A   Clear
12:53 PM 82.9 °F 24.1 °F 12% 29.91 in 10.0 mi South 10.4 mph - N/A   Clear
1:53 PM 84.9 °F 26.1 °F 12% 29.86 in 10.0 mi SSW 23.0 mph 31.1 mph N/A   Clear
2:53 PM 84.0 °F 25.0 °F 12% 29.89 in 10.0 mi Variable 6.9 mph 16.1 mph N/A   Clear
3:53 PM 84.9 °F 28.0 °F 13% 29.88 in 10.0 mi Variable 5.8 mph - N/A   Clear
4:53 PM 87.1 °F 27.0 °F 11% 29.87 in 10.0 mi WNW 16.1 mph 21.9 mph N/A   Clear
5:06 PM 86.0 °F 26.6 °F 12% 30.11 in 10.0 mi West 8.1 mph 20.7 mph N/A   Clear
5:53 PM 84.9 °F 26.1 °F 12% 29.86 in 10.0 mi WNW 6.9 mph 18.4 mph N/A   Clear
6:53 PM 84.9 °F 27.0 °F 12% 29.87 in 10.0 mi WNW 12.7 mph - N/A   Clear
7:53 PM 82.9 °F 26.1 °F 13% 29.86 in 10.0 mi WNW 5.8 mph - N/A   Clear
8:53 PM 70.0 °F 32.0 °F 25% 29.88 in 10.0 mi Calm Calm - N/A   Clear
9:53 PM 64.0 °F 32.0 °F 30% 29.91 in 10.0 mi NE 6.9 mph - N/A   Clear
10:53 PM 63.0 °F 28.0 °F 27% 29.91 in 10.0 mi ENE 8.1 mph - N/A   Clear
11:53 PM 59.0 °F 30.0 °F 33% 29.92 in 10.0 mi ENE 4.6 mph - N/A   Clear